Location: Riverton
(43.0250°N, 108.3790°W)
Time: 13:11:07
(UTC-06:00)

Amateur Radio Satellites - All Passes

Search period start: 03 August 2015 12:41
Search period end: 04 August 2015 12:41
Location: Riverton, 43.0250°N, 108.3790°W

Satellite Date Start Highest point End Downlink Frequencies (MHz)
Time Altitude Azimuth
O/OREOS (USA 219) 03 Aug 12:51:51 12:54:34 15° 260° (W) 12:57:06 437.305
DUCHIFAT 1 03 Aug 12:51:58 12:54:24 15° 270° (W) 12:56:40 145.980
AISAT 03 Aug 12:57:25 13:01:38 45° 288° (WNW) 13:05:51 437.250
QB50P1 03 Aug 12:57:57 12:59:48 12° 272° (W) 13:01:27 145.935-145.965
NANOSAT C BR1 03 Aug 12:58:03 12:59:56 12° 272° (W) 13:01:37 145.865
CUBEBUG 1 03 Aug 13:03:21 13:07:40 67° 286° (WNW) 13:11:58 437.445
DX 1 03 Aug 13:12:13 13:15:30 21° 294° (WNW) 13:18:42 434.975-435.025
50 SAT 03 Aug 13:17:32 13:20:34 21° 292° (WNW) 13:23:29 437.505
Cosmos 2504 03 Aug 13:28:17 13:36:11 43° 72° (ENE) 13:44:20 435.465 / 435.565
SPROUT 03 Aug 13:29:13 13:33:31 72° 101° (ESE) 13:37:49 437.525
TISAT 1 03 Aug 13:30:49 13:34:52 44° 99° (E) 13:38:55 437.305
VELOX 1 03 Aug 13:36:25 13:39:41 20° 294° (WNW) 13:42:51 145.980
BEESAT 03 Aug 13:45:42 13:46:54 11° 87° (E) 13:48:24 436.000
Gurwin Techsat 1B 03 Aug 13:46:11 13:50:33 27° 66° (ENE) 13:55:00 435.225
AIST 1 03 Aug 13:49:13 13:51:43 14° 293° (WNW) 13:54:01
ITAMSAT 1 03 Aug 13:53:05 13:57:24 28° 66° (ENE) 14:01:49 435.822/435.867
YUBILEINY 03 Aug 13:53:25 13:59:58 23° 279° (W) 14:06:08 435.215
ESTCUBE 1 03 Aug 13:58:44 14:01:44 17° 296° (WNW) 14:04:36 437.505/2401.250
Oscar 19 03 Aug 14:04:36 14:09:42 69° 258° (WSW) 14:14:50 437.125/150
SWISSCUBE 03 Aug 14:04:52 14:08:16 20° 92° (E) 14:11:47 437.505
JAS-2 03 Aug 14:10:18 14:15:01 23° 58° (ENE) 14:20:20 435.910
ITUPSAT 1 03 Aug 14:26:39 14:30:47 29° 95° (E) 14:34:57 437.325
Cosmos 2491 03 Aug 14:29:10 14:36:41 30° 295° (WNW) 14:43:58 435.465 / 435.565
DANDE 03 Aug 14:53:13 14:56:23 23° 75° (ENE) 15:00:26 436.750
CUSAT 1 03 Aug 14:53:38 14:57:44 40° 77° (ENE) 15:03:06 437.405
AO-7 03 Aug 14:59:08 15:06:27 37° 59° (ENE) 15:13:54 29.400- 29.500
SPROUT 03 Aug 15:07:19 15:09:05 12° 297° (WNW) 15:10:40 437.525
TISAT 1 03 Aug 15:07:27 15:10:20 18° 295° (WNW) 15:13:05 437.305
Cosmos 2504 03 Aug 15:20:33 15:28:29 45° 271° (W) 15:36:26 435.465 / 435.565
BEESAT 03 Aug 15:20:38 15:25:27 80° 286° (WNW) 15:30:13 436.000
Gurwin Techsat 1B 03 Aug 15:25:20 15:30:22 42° 262° (W) 15:35:23 435.225
KKS-1 03 Aug 15:29:50 15:33:18 22° 93° (E) 15:36:51 437.445
ITAMSAT 1 03 Aug 15:31:52 15:36:46 40° 262° (W) 15:41:39 435.822/435.867
HORYU 2 03 Aug 15:35:18 15:39:14 33° 69° (ENE) 15:43:17 437.375
SWISSCUBE 03 Aug 15:41:49 15:46:24 46° 289° (WNW) 15:50:55 437.505
JAS-2 03 Aug 15:53:06 15:59:19 74° 258° (WSW) 16:06:25 435.910
ITUPSAT 1 03 Aug 16:04:26 16:08:41 32° 292° (WNW) 16:12:51 437.325
PCSat 03 Aug 16:20:28 16:23:14 14° 35° (NE) 16:26:09 145.827
SO-50 03 Aug 16:20:38 16:23:46 17° 34° (NE) 16:27:00 436.795
STARS 03 Aug 16:31:52 16:36:16 61° 101° (E) 16:40:39 437.465
DANDE 03 Aug 16:35:51 16:39:27 30° 263° (W) 16:44:00 436.750
CUSAT 1 03 Aug 16:36:37 16:40:15 22° 265° (W) 16:44:29 437.405
GONETS M04 03 Aug 16:37:08 16:44:59 37° 69° (ENE) 16:53:00
MOZHAYETS 4 03 Aug 16:40:29 16:43:21 17° 90° (E) 16:46:23
AO-7 03 Aug 16:50:45 16:58:58 57° 258° (WSW) 17:07:11 29.400- 29.500
BEESAT 03 Aug 17:01:44 17:02:34 10° 301° (WNW) 17:03:08 436.000
KKS-1 03 Aug 17:05:56 17:10:03 36° 290° (WNW) 17:14:08 437.445
HORYU 2 03 Aug 17:12:14 17:15:56 25° 266° (W) 17:19:36 437.375
CUTE-I 03 Aug 17:20:44 17:24:16 19° 62° (ENE) 17:27:59 437.470
JAS-2 03 Aug 17:43:56 17:46:04 11° 281° (WNW) 17:47:45 435.910
VERMONT LUNAR 03 Aug 17:52:50 17:55:28 24° 159° (SSE) 17:58:08 437.305
SO-50 03 Aug 18:00:09 18:05:09 82° 55° (NE) 18:10:00 436.795
PCSat 03 Aug 18:02:24 18:07:49 65° 57° (ENE) 18:13:12 145.827
Cubesat XI-IV 03 Aug 18:03:51 18:08:52 43° 69° (ENE) 18:13:57 437.490
STARS 03 Aug 18:09:44 18:12:16 15° 297° (WNW) 18:14:38 437.465
MOZHAYETS 4 03 Aug 18:16:26 18:20:57 52° 287° (WNW) 18:25:24
Cosmos 2499 03 Aug 18:18:26 18:26:32 41° 70° (ENE) 18:34:50 435.465 / 435.565
GONETS M04 03 Aug 18:33:49 18:42:10 51° 270° (W) 18:50:27
CUBESAT XI-V 03 Aug 18:41:35 18:45:24 26° 93° (E) 18:49:16 437.345
PHONESAT 2.4 03 Aug 18:53:29 18:55:21 14° 151° (SSE) 18:57:17 2401.200-2431.200
CUTE-I 03 Aug 18:58:34 19:03:54 65° 258° (WSW) 19:09:14 437.470
HO-68 03 Aug 19:23:31 19:28:49 24° 57° (ENE) 19:34:20 435.675
VERMONT LUNAR 03 Aug 19:28:46 19:31:52 51° 175° (S) 19:34:59 437.305
GOMX 1 03 Aug 19:35:28 19:38:34 21° 67° (ENE) 19:41:45 467.674
BRITE-PL 03 Aug 19:38:25 19:42:24 38° 72° (ENE) 19:46:17 437.365/2234.400
SO-50 03 Aug 19:42:40 19:45:05 13° 251° (WSW) 19:47:14 436.795
Cubesat XI-IV 03 Aug 19:44:40 19:49:10 26° 267° (W) 19:53:34 437.490
PCSat 03 Aug 19:47:01 19:50:45 19° 253° (WSW) 19:54:18 145.827
ISS 03 Aug 19:56:03 19:58:21 18° 135° (SE) 20:00:43 145.825
RS-15 03 Aug 19:59:17 20:06:27 22° 102° (ESE) 20:14:21 29.354- 29.394
SEEDS 03 Aug 20:00:18 20:02:51 16° 65° (ENE) 20:05:34 437.485
CUTE 1.7 + AOD 2 03 Aug 20:07:02 20:10:22 23° 68° (ENE) 20:13:48 437.475
PRISM 03 Aug 20:08:56 20:12:54 45° 100° (E) 20:16:50 437.425
Cosmos 2499 03 Aug 20:11:32 20:19:55 49° 270° (W) 20:28:15 435.465 / 435.565
CANX-2 03 Aug 20:15:24 20:19:08 31° 70° (ENE) 20:22:58 2200.000
CUBESAT XI-V 03 Aug 20:18:46 20:22:53 33° 291° (WNW) 20:26:57 437.345
AAUSAT CUBESAT 2 03 Aug 20:19:09 20:21:50 17° 66° (ENE) 20:24:38 437.432
STRAND 1 03 Aug 20:19:41 20:24:48 72° 102° (ESE) 20:29:53 437.568
PHONESAT 2.4 03 Aug 20:29:30 20:32:48 40° 166° (SSE) 20:36:09 2401.200-2431.200
CINEMA 3 03 Aug 20:35:03 20:38:23 24° 68° (ENE) 20:41:54 145.822/145.860
DOVE 4 03 Aug 20:46:21 20:50:28 74° 76° (ENE) 20:54:39 437.250
CUBEBUG 2 03 Aug 20:47:09 20:49:43 16° 64° (ENE) 20:52:28 437.445
VERMONT LUNAR 03 Aug 21:05:21 21:08:23 42° 192° (SSW) 21:11:24 437.305
HO-68 03 Aug 21:08:48 21:15:56 75° 256° (WSW) 21:23:08 435.675
GOMX 1 03 Aug 21:12:47 21:16:36 33° 264° (W) 21:20:21 467.674
COMPASS 1 03 Aug 21:14:00 21:18:13 77° 76° (ENE) 21:22:29 437.405
BRITE-PL 03 Aug 21:18:09 21:21:10 18° 268° (W) 21:23:59 437.365/2234.400
DELFI C3 03 Aug 21:19:06 21:22:13 22° 68° (ENE) 21:25:26 145.870
ZACube-1 03 Aug 21:29:57 21:33:30 27° 68° (ENE) 21:37:11 437.345
ISS 03 Aug 21:31:19 21:34:32 58° 331° (NNW) 21:37:46 145.825
SEEDS 03 Aug 21:34:09 21:38:17 50° 261° (W) 21:42:28 437.485
CUTE 1.7 + AOD 2 03 Aug 21:42:13 21:46:07 33° 264° (W) 21:50:01 437.475
PRISM 03 Aug 21:45:22 21:48:01 16° 295° (WNW) 21:50:30 437.425
FUNcube-1 03 Aug 21:49:45 21:53:43 42° 72° (ENE) 21:57:50 145.935
CANX-2 03 Aug 21:51:33 21:55:06 24° 267° (W) 21:58:36 2200.000
HUMSAT D 03 Aug 21:52:37 21:55:37 20° 67° (ENE) 21:58:47 437.325/437.525
AAUSAT CUBESAT 2 03 Aug 21:53:03 21:57:06 45° 262° (W) 22:01:10 437.432
Oscar 11 03 Aug 21:57:00 22:01:21 87° 77° (ENE) 22:05:44 145.826/435.025
UWE-3 03 Aug 21:59:50 22:04:02 74° 77° (ENE) 22:08:23 435.000/436.395/437.385
STRAND 1 03 Aug 22:00:22 22:03:29 16° 299° (WNW) 22:06:23 437.568
UKube-1 03 Aug 22:00:28 22:03:12 17° 64° (ENE) 22:06:04 .
RS-15 03 Aug 22:06:24 22:17:20 86° 122° (ESE) 22:28:44 29.354- 29.394
PHONESAT 2.4 03 Aug 22:07:06 22:10:33 57° 183° (S) 22:14:01 2401.200-2431.200
CINEMA 3 03 Aug 22:11:52 22:15:31 29° 265° (W) 22:19:13 145.822/145.860
AIST 1 03 Aug 22:16:49 22:19:08 15° 67° (ENE) 22:21:37
AISAT 03 Aug 22:20:49 22:23:49 19° 65° (ENE) 22:26:58 437.250
CUBEBUG 2 03 Aug 22:21:58 22:26:02 48° 261° (W) 22:30:15 437.445
CUBEBUG 1 03 Aug 22:26:58 22:28:35 12° 62° (ENE) 22:30:24 437.445
50 SAT 03 Aug 22:27:37 22:30:33 21° 68° (ENE) 22:33:37 437.505
M-CUBED/EXP-1 PRIME 03 Aug 22:27:41 22:31:52 30° 99° (E) 22:35:59 437.505
DX 1 03 Aug 22:31:51 22:35:51 38° 70° (ENE) 22:39:54 434.975-435.025
Cosmos 2491 03 Aug 22:39:56 22:47:33 33° 67° (ENE) 22:55:18 435.465 / 435.565
VERMONT LUNAR 03 Aug 22:42:41 22:44:39 15° 207° (SSW) 22:46:34 437.305
BEESAT 2 03 Aug 22:51:03 22:54:12 22° 114° (ESE) 22:57:30 435.950
UNISAT 6 03 Aug 22:52:49 22:56:14 20° 91° (E) 22:59:47 437.425
DELFI C3 03 Aug 22:53:29 22:57:08 31° 264° (W) 23:00:47 145.870
AUBIESAT-1 03 Aug 22:53:49 22:58:24 47° 103° (ESE) 23:02:49 437.475
VELOX 1 03 Aug 22:57:35 23:01:43 42° 71° (ENE) 23:05:53 145.980
HO-68 03 Aug 23:01:58 23:05:04 12° 276° (W) 23:07:38 435.675
YUBILEINY 03 Aug 23:04:41 23:09:40 18° 78° (ENE) 23:15:10 435.215
ZACube-1 03 Aug 23:06:10 23:09:49 27° 266° (W) 23:13:29 437.345
ISS 03 Aug 23:08:58 23:11:27 20° 350° (N) 23:13:58 145.825
ESTCUBE 1 03 Aug 23:21:08 23:25:32 52° 73° (ENE) 23:29:58 437.505/2401.250
BEESAT 3 03 Aug 23:25:25 23:29:27 68° 121° (ESE) 23:33:32 437.485
HUMSAT D 03 Aug 23:27:16 23:31:08 37° 263° (W) 23:35:03 437.325/437.525
FUNcube-1 03 Aug 23:27:26 23:30:20 17° 270° (W) 23:33:08 145.935
TIGRISAT 03 Aug 23:34:02 23:38:37 50° 99° (E) 23:43:13 435.000
UKube-1 03 Aug 23:34:48 23:38:59 48° 260° (W) 23:43:12 .
ANTELSAT 03 Aug 23:37:10 23:41:49 56° 100° (E) 23:46:27 437.575/2403.000
PHONESAT 2.4 03 Aug 23:45:05 23:48:15 31° 199° (SSW) 23:51:24 2401.200-2431.200
POLYITAN 1 03 Aug 23:48:27 23:52:08 28° 95° (E) 23:55:52 437.675
BUGSAT 1 03 Aug 23:52:27 23:55:12 18° 92° (E) 23:58:06 437.445
AIST 1 03 Aug 23:53:02 23:57:10 49° 266° (W) 00:01:16
AISAT 03 Aug 23:55:53 00:00:07 44° 261° (W) 00:04:20 437.250
CUBEBUG 1 04 Aug 00:00:05 00:04:26 72° 259° (W) 00:08:46 437.445
50 SAT 04 Aug 00:01:30 00:04:59 30° 264° (W) 00:08:28 437.505
M-CUBED/EXP-1 PRIME 04 Aug 00:02:17 00:06:37 33° 296° (WNW) 00:10:46 437.505
POPSAT HIP 1 04 Aug 00:04:00 00:08:02 39° 98° (E) 00:12:04 437.405
DX 1 04 Aug 00:08:59 00:12:16 20° 267° (W) 00:15:26 434.975-435.025
QB50P2 04 Aug 00:12:23 00:16:34 51° 100° (E) 00:20:45 145.880/145.840
RS-15 04 Aug 00:21:20 00:31:19 36° 330° (NNW) 00:41:35 29.354- 29.394
TISAT 1 04 Aug 00:23:47 00:27:37 37° 71° (ENE) 00:31:30 437.305
SPROUT 04 Aug 00:24:01 00:28:13 61° 74° (ENE) 00:32:27 437.525
BEESAT 2 04 Aug 00:28:14 00:32:05 38° 311° (NW) 00:35:57 435.950
UNISAT 6 04 Aug 00:28:45 00:33:15 44° 288° (WNW) 00:37:42 437.425
AUBIESAT-1 04 Aug 00:29:06 00:32:47 22° 300° (WNW) 00:36:18 437.475
DUCHIFAT 1 04 Aug 00:33:17 00:37:33 82° 103° (ESE) 00:41:48 145.980
VELOX 1 04 Aug 00:35:18 00:38:29 19° 268° (W) 00:41:34 145.980
Cosmos 2491 04 Aug 00:36:27 00:44:55 57° 269° (W) 00:53:19 435.465 / 435.565
NANOSAT C BR1 04 Aug 00:38:56 00:43:12 84° 284° (WNW) 00:47:28 145.865
QB50P1 04 Aug 00:39:00 00:43:17 83° 285° (WNW) 00:47:34 145.935-145.965
AIST 2 04 Aug 00:43:37 00:47:52 77° 121° (ESE) 00:52:08 435.215
ISS 04 Aug 00:46:12 00:48:43 20° 10° (N) 00:51:13 145.825
BEESAT 04 Aug 00:52:26 00:55:16 16° 62° (ENE) 00:58:16 436.000
YUBILEINY 04 Aug 00:56:37 01:05:20 87° 98° (E) 01:14:10 435.215
ESTCUBE 1 04 Aug 00:59:54 01:02:46 16° 270° (W) 01:05:28 437.505/2401.250
BEESAT 3 04 Aug 01:05:08 01:07:50 17° 320° (NW) 01:10:28 437.485
TIGRISAT 04 Aug 01:11:40 01:15:01 19° 295° (WNW) 01:18:16 435.000
SWISSCUBE 04 Aug 01:12:13 01:16:08 26° 67° (ENE) 01:20:10 437.505
ANTELSAT 04 Aug 01:15:02 01:18:11 18° 296° (WNW) 01:21:12 437.575/2403.000
O/OREOS (USA 219) 04 Aug 01:24:07 01:28:29 55° 109° (ESE) 01:32:54 437.305
POLYITAN 1 04 Aug 01:24:20 01:28:00 27° 291° (WNW) 01:31:36 437.675
BUGSAT 1 04 Aug 01:27:02 01:30:51 38° 289° (WNW) 01:34:40 437.445
ITUPSAT 1 04 Aug 01:34:12 01:38:37 38° 69° (ENE) 01:43:05 437.325
POPSAT HIP 1 04 Aug 01:40:31 01:43:39 20° 294° (WNW) 01:46:41 437.405
QB50P2 04 Aug 01:49:25 01:52:06 16° 295° (WNW) 01:54:37 145.880/145.840
TISAT 1 04 Aug 02:00:29 02:03:33 19° 268° (W) 02:06:31 437.305
Cosmos 2504 04 Aug 02:01:18 02:07:03 27° 83° (E) 02:13:21 435.465 / 435.565
SPROUT 04 Aug 02:02:55 02:04:47 12° 272° (W) 02:06:25 437.525
DUCHIFAT 1 04 Aug 02:11:53 02:12:46 10° 298° (WNW) 02:13:26 145.980
Oscar 19 04 Aug 02:15:17 02:20:07 39° 97° (E) 02:24:59 437.125/150
ISS 04 Aug 02:22:24 02:25:37 58° 29° (NNE) 02:28:51 145.825
AIST 2 04 Aug 02:24:13 02:26:58 16° 322° (NW) 02:29:38 435.215
BEESAT 04 Aug 02:27:53 02:32:39 64° 259° (W) 02:37:26 436.000
KKS-1 04 Aug 02:29:05 02:32:33 24° 67° (ENE) 02:36:07 437.445
RS-15 04 Aug 02:39:29 02:48:16 24° 4° (N) 02:57:24 29.354- 29.394
SWISSCUBE 04 Aug 02:49:26 02:53:52 36° 263° (W) 02:58:17 437.505
YUBILEINY 04 Aug 02:57:05 03:03:33 21° 300° (WNW) 03:09:44 435.215
JAS-2 04 Aug 03:02:17 03:07:39 21° 85° (E) 03:13:17 435.910
O/OREOS (USA 219) 04 Aug 03:05:13 03:08:19 18° 309° (NW) 03:11:20 437.305
ITUPSAT 1 04 Aug 03:12:41 03:16:38 24° 266° (W) 03:20:31 437.325
STARS 04 Aug 03:29:27 03:33:44 59° 74° (ENE) 03:38:04 437.465
Gurwin Techsat 1B 04 Aug 03:40:08 03:45:28 73° 102° (ESE) 03:50:46 435.225
ITAMSAT 1 04 Aug 03:43:18 03:48:28 68° 101° (ESE) 03:53:37 435.822/435.867
MOZHAYETS 4 04 Aug 03:43:28 03:46:37 19° 65° (ENE) 03:49:55
Cosmos 2504 04 Aug 03:51:39 03:58:45 57° 284° (WNW) 04:06:23 435.465 / 435.565
Oscar 19 04 Aug 03:54:56 03:59:20 28° 294° (WNW) 04:03:38 437.125/150
ISS 04 Aug 03:59:27 04:01:48 18° 226° (SW) 04:04:06 145.825
CUSAT 1 04 Aug 04:04:30 04:06:46 24° 96° (E) 04:08:58 437.405
KKS-1 04 Aug 04:04:58 04:09:01 35° 263° (W) 04:13:05 437.445
DANDE 04 Aug 04:08:28 04:10:21 16° 96° (E) 04:12:10 436.750
JAS-2 04 Aug 04:45:45 04:53:41 86° 285° (WNW) 05:01:23 435.910
AO-7 04 Aug 04:51:08 04:59:07 48° 100° (E) 05:07:05 29.400- 29.500
RS-15 04 Aug 04:54:05 05:04:54 42° 36° (NE) 05:16:15 29.354- 29.394
HORYU 2 04 Aug 05:01:25 05:05:53 58° 101° (E) 05:10:19 437.375
STARS 04 Aug 05:08:29 05:10:39 13° 271° (W) 05:12:37 437.465
MOZHAYETS 4 04 Aug 05:18:59 05:23:30 50° 261° (W) 05:28:03
Gurwin Techsat 1B 04 Aug 05:21:33 05:24:54 17° 299° (WNW) 05:28:03 435.225
ITAMSAT 1 04 Aug 05:24:08 05:27:29 17° 299° (WNW) 05:30:39 435.822/435.867
GONETS M04 04 Aug 05:39:36 05:47:24 40° 87° (E) 05:55:22
CUBESAT XI-V 04 Aug 05:45:50 05:49:49 29° 69° (ENE) 05:53:51 437.345
Cosmos 2504 04 Aug 05:52:02 05:53:19 10° 310° (NW) 05:54:02 435.465 / 435.565
DANDE 04 Aug 05:52:07 05:53:26 12° 288° (WNW) 05:54:35 436.750
STRAND 1 04 Aug 05:59:58 06:02:54 16° 61° (ENE) 06:06:02 437.568
Cubesat XI-IV 04 Aug 06:21:28 06:24:23 15° 88° (E) 06:27:33 437.490
JAS-2 04 Aug 06:32:10 06:37:45 21° 303° (WNW) 06:43:02 435.910
HORYU 2 04 Aug 06:39:18 06:42:06 16° 297° (WNW) 06:44:44 437.375
AO-7 04 Aug 06:44:09 06:51:51 42° 299° (WNW) 06:59:24 29.400- 29.500
Cosmos 2499 04 Aug 06:57:29 07:03:30 28° 83° (E) 07:10:06 435.465 / 435.565
PRISM 04 Aug 06:59:39 07:03:31 38° 71° (ENE) 07:07:25 437.425
RS-15 04 Aug 07:06:42 07:18:27 74° 241° (WSW) 07:30:33 29.354- 29.394
BEESAT 2 04 Aug 07:08:41 07:11:53 22° 43° (NE) 07:15:06 435.950
CUTE-I 04 Aug 07:14:46 07:19:53 46° 99° (E) 07:25:00 437.470
CUBESAT XI-V 04 Aug 07:23:03 07:27:13 30° 265° (W) 07:31:19 437.345
AIST 2 04 Aug 07:27:58 07:29:17 11° 33° (NNE) 07:30:44 435.215
GONETS M04 04 Aug 07:35:54 07:44:12 46° 287° (WNW) 07:52:27
STRAND 1 04 Aug 07:36:26 07:41:34 73° 257° (WSW) 07:46:44 437.568
BEESAT 3 04 Aug 07:43:04 07:47:03 53° 52° (NE) 07:50:58 437.485
BRITE-PL 04 Aug 07:43:05 07:44:34 12° 88° (E) 07:46:22 437.365/2234.400
Cubesat XI-IV 04 Aug 07:59:48 08:05:08 71° 287° (WNW) 08:10:24 437.490
SO-50 04 Aug 08:16:18 08:19:51 22° 112° (ESE) 08:23:35 436.795
PRISM 04 Aug 08:36:06 08:39:08 19° 268° (W) 08:42:02 437.425
HO-68 04 Aug 08:36:41 08:41:36 20° 89° (E) 08:46:48 435.675
AO-7 04 Aug 08:41:18 08:42:33 10° 321° (NW) 08:43:20 29.400- 29.500
DOVE 4 04 Aug 08:44:15 08:47:40 20° 92° (E) 08:51:21 437.250
PCSat 04 Aug 08:44:54 08:50:05 49° 114° (ESE) 08:55:19 145.827
BEESAT 2 04 Aug 08:46:15 08:50:08 43° 242° (WSW) 08:53:56 435.950
Cosmos 2499 04 Aug 08:48:41 08:56:06 59° 284° (WNW) 09:04:08 435.465 / 435.565
CUTE-I 04 Aug 08:55:26 08:59:44 25° 296° (WNW) 09:03:54 437.470
COMPASS 1 04 Aug 08:58:38 09:00:01 12° 87° (E) 09:01:38 437.405
AIST 2 04 Aug 09:04:33 09:08:44 65° 54° (NE) 09:12:50 435.215
GOMX 1 04 Aug 09:11:58 09:16:32 59° 101° (E) 09:21:24 467.674
M-CUBED/EXP-1 PRIME 04 Aug 09:16:05 09:20:01 41° 65° (ENE) 09:24:18 437.505
SEEDS 04 Aug 09:17:52 09:21:21 25° 94° (E) 09:24:53 437.485
BRITE-PL 04 Aug 09:19:09 09:23:36 72° 284° (WNW) 09:28:23 437.365/2234.400
RS-15 04 Aug 09:21:49 09:29:16 18° 260° (W) 09:35:55 29.354- 29.394
BEESAT 3 04 Aug 09:22:14 09:24:36 15° 249° (WSW) 09:26:47 437.485
CUTE 1.7 + AOD 2 04 Aug 09:26:08 09:30:08 37° 97° (E) 09:34:08 437.475
CANX-2 04 Aug 09:34:56 09:39:10 53° 99° (E) 09:43:22 2200.000
AAUSAT CUBESAT 2 04 Aug 09:35:15 09:38:44 25° 94° (E) 09:42:15 437.432
AUBIESAT-1 04 Aug 09:41:43 09:45:52 66° 69° (ENE) 09:50:21 437.475
Cubesat XI-IV 04 Aug 09:43:12 09:44:23 11° 304° (WNW) 09:45:15 437.490
Oscar 11 04 Aug 09:44:47 09:47:13 15° 89° (E) 09:49:50 145.826/435.025
UWE-3 04 Aug 09:49:47 09:52:27 16° 89° (E) 09:55:20 435.000/436.395/437.385
UNISAT 6 04 Aug 09:53:10 09:56:16 20° 65° (ENE) 09:59:34 437.425
O/OREOS (USA 219) 04 Aug 09:54:54 09:57:40 16° 50° (NE) 10:00:36 437.305
SO-50 04 Aug 09:55:23 10:00:04 51° 310° (NW) 10:04:53 436.795
CINEMA 3 04 Aug 10:04:17 10:08:59 58° 100° (E) 10:13:51 145.822/145.860
CUBEBUG 2 04 Aug 10:11:42 10:15:54 33° 95° (E) 10:20:12 437.445
DOVE 4 04 Aug 10:21:09 10:25:38 46° 288° (WNW) 10:30:22 437.250
HO-68 04 Aug 10:22:58 10:30:10 78° 289° (WNW) 10:37:21 435.675
PCSat 04 Aug 10:29:05 10:33:46 28° 314° (NW) 10:38:24 145.827
DELFI C3 04 Aug 10:31:17 10:34:53 30° 96° (E) 10:38:29 145.870
COMPASS 1 04 Aug 10:32:00 10:36:11 62° 286° (WNW) 10:40:19 437.405
TIGRISAT 04 Aug 10:33:41 10:37:52 47° 72° (ENE) 10:42:13 435.000
ANTELSAT 04 Aug 10:36:59 10:41:15 53° 73° (ENE) 10:45:40 437.575/2403.000
POLYITAN 1 04 Aug 10:42:38 10:45:59 24° 68° (ENE) 10:49:26 437.675
BUGSAT 1 04 Aug 10:44:14 10:46:27 15° 65° (ENE) 10:48:50 437.445
AIST 2 04 Aug 10:44:52 10:46:49 13° 250° (WSW) 10:48:34 435.215
Cosmos 2499 04 Aug 10:49:01 10:51:40 11° 310° (NW) 10:53:49 435.465 / 435.565
GOMX 1 04 Aug 10:51:24 10:54:21 16° 294° (WNW) 10:57:14 467.674
M-CUBED/EXP-1 PRIME 04 Aug 10:51:53 10:55:03 20° 265° (W) 10:58:16 437.505
ZACube-1 04 Aug 10:52:46 10:57:14 52° 99° (E) 11:01:44 437.345
SEEDS 04 Aug 10:53:25 10:57:09 30° 290° (WNW) 11:00:50 437.485
POPSAT HIP 1 04 Aug 10:57:43 11:01:29 33° 70° (ENE) 11:05:18 437.405
CUTE 1.7 + AOD 2 04 Aug 11:02:35 11:05:49 21° 293° (WNW) 11:08:58 437.475
YUBILEINY 04 Aug 11:05:47 11:14:10 46° 72° (ENE) 11:22:36 435.215
QB50P2 04 Aug 11:06:07 11:10:04 43° 72° (ENE) 11:14:06 145.880/145.840
HUMSAT D 04 Aug 11:10:03 11:13:56 32° 96° (E) 11:17:51 437.325/437.525
AAUSAT CUBESAT 2 04 Aug 11:10:41 11:14:20 28° 290° (WNW) 11:17:53 437.432
CANX-2 04 Aug 11:12:05 11:14:42 16° 295° (WNW) 11:17:11 2200.000
FUNcube-1 04 Aug 11:12:44 11:17:19 82° 102° (ESE) 11:21:54 145.935
AUBIESAT-1 04 Aug 11:19:16 11:21:11 12° 269° (W) 11:22:56 437.475
Oscar 11 04 Aug 11:19:31 11:23:46 51° 287° (WNW) 11:27:59 145.826/435.025
UKube-1 04 Aug 11:21:36 11:25:08 25° 94° (E) 11:28:44 .
UWE-3 04 Aug 11:24:49 11:29:22 57° 287° (WNW) 11:33:57 435.000/436.395/437.385
DUCHIFAT 1 04 Aug 11:26:14 11:30:23 67° 75° (ENE) 11:34:33 145.980
UNISAT 6 04 Aug 11:28:35 11:32:46 43° 262° (W) 11:37:03 437.425
NANOSAT C BR1 04 Aug 11:32:02 11:36:13 81° 76° (ENE) 11:40:26 145.865
QB50P1 04 Aug 11:32:20 11:36:31 83° 76° (ENE) 11:40:45 145.935-145.965
O/OREOS (USA 219) 04 Aug 11:33:03 11:37:38 66° 250° (WSW) 11:42:10 437.305
50 SAT 04 Aug 11:35:41 11:39:04 27° 95° (E) 11:42:29 437.505
SO-50 04 Aug 11:39:45 11:41:49 12° 331° (NNW) 11:43:45 436.795
CINEMA 3 04 Aug 11:42:37 11:45:49 18° 295° (WNW) 11:48:56 145.822/145.860
Cosmos 2491 04 Aug 11:42:39 11:50:17 37° 86° (E) 11:58:06 435.465 / 435.565
AISAT 04 Aug 11:45:32 11:49:26 31° 96° (E) 11:53:24 437.250
Cosmos 2504 04 Aug 11:48:11 11:49:15 10° 51° (NE) 11:51:00 435.465 / 435.565
CUBEBUG 2 04 Aug 11:48:30 11:52:30 28° 291° (WNW) 11:56:29 437.445
CUBEBUG 1 04 Aug 11:48:47 11:51:49 19° 92° (E) 11:54:59 437.445
DX 1 04 Aug 11:54:53 11:59:12 63° 101° (E) 12:03:31 434.975-435.025
DELFI C3 04 Aug 12:06:36 12:09:48 22° 292° (WNW) 12:12:54 145.870
TIGRISAT 04 Aug 12:12:04 12:14:58 17° 270° (W) 12:17:46 435.000
HO-68 04 Aug 12:12:30 12:16:55 17° 307° (NW) 12:21:03 435.675
ANTELSAT 04 Aug 12:15:51 12:18:28 15° 271° (W) 12:20:56 437.575/2403.000
BUGSAT 1 04 Aug 12:17:40 12:21:35 48° 261° (W) 12:25:30 437.445
POLYITAN 1 04 Aug 12:18:02 12:21:47 30° 264° (W) 12:25:30 437.675
AIST 1 04 Aug 12:22:52 12:27:13 89° 277° (W) 12:31:33
VELOX 1 04 Aug 12:23:04 12:27:31 76° 102° (ESE) 12:31:55 145.980
ZACube-1 04 Aug 12:30:07 12:33:13 18° 295° (WNW) 12:36:12 437.345
POPSAT HIP 1 04 Aug 12:34:11 12:37:28 21° 267° (W) 12:40:39 437.405
